CAPE
0 0 0 0 0 0 0 0 0 0 0 7 128 88 64 59 59 51 16 5 1 1
0 0 0 0 0 0 0 0 0 0 0 0 0 3 108 127 138 150 92 46 11 3
0 0 0 0 0 0 0 0 0 0 0 0 0 0 0 20 208 157 139 134 77 23
0 0 0 0 0 0 0 0 0 0 0 0 0 0 0 0 0 2 87 184 120 70
0 0 0 0 0 0 0 0 0 0 0 0 0 0 0 0 0 0 0 0 38 283
0 0 0 0 0 0 0 0 0 0 0 0 0 0 0 0 0 0 0 0 0 0
0 0 0 0 0 0 0 0 0 0 0 0 0 0 0 0 0 0 0 0 0 0
0 0 0 0 0 0 0 0 0 0 0 0 0 0 0 0 0 1 0 0 0 0
0 0 0 0 0 0 0 0 0 0 0 0 0 0 1 2 1 1 0 1 1 2
0 0 0 0 0 0 0 0 0 0 0 0 0 0 1 1 1 0 0 1 1 1
0 0 0 0 0 0 0 0 0 0 0 0 0 0 0 0 0 0 0 0 2 1
0 0 0 0 0 0 0 0 0 0 0 0 0 0 0 0 0 0 0 0 0 0
0 0 0 0 0 0 0 0 0 0 0 0 0 0 0 0 0 0 0 2 1 0
0 0 0 0 0 0 0 0 0 0 0 0 0 0 0 1 0 1 2 2 0 1
CIN
-0 -0 -0 -0 -0 -0 -0 -0 -0 -0 -0 -10 -8 -11 -21 -29 -26 -25 -95 -138 -16 -0
-0 -0 -0 -0 -0 -0 -0 -0 -0 -0 -0 -0 -0 -50 -7 -0 -0 -0 -6 -30 -83 -24
-0 -0 -0 -0 -0 -0 -0 -0 -0 -0 -0 -0 -0 -0 -0 -48 -5 -6 -8 -1 -8 -38
-0 -0 -0 -0 -0 -0 -0 -0 -0 -0 -0 -0 -0 -0 -0 -0 -0 -14 -33 -11 -15 -22
-0 -0 -0 -0 -0 -0 -0 -0 -0 -0 -0 -0 -0 -0 -0 -0 -0 -0 -0 -0 -33 -0
-0 -0 -0 -0 -0 -0 -0 -0 -0 -0 -0 -0 -0 -0 -0 -0 -0 -0 -0 -0 -0 -0
-0 -0 -0 -0 -0 -0 -0 -0 -0 -0 -0 -0 -0 -0 -0 -0 -0 -0 -0 -0 -0 -0
-0 -0 -0 -0 -0 -0 -0 -0 -0 -0 -0 -0 -0 -0 -0 -0 -0 -0 -0 -0 -0 -0
-0 -0 -0 -0 -0 -0 -0 -0 -0 -0 -0 -0 -0 -0 -0 -0 -0 -0 -0 -0 -0 -0
-0 -0 -0 -0 -0 -0 -0 -0 -0 -0 -0 -0 -0 -0 -0 -0 -0 -0 -0 -0 -0 -0
-0 -0 -0 -0 -0 -0 -0 -0 -0 -0 -0 -0 -0 -0 -0 -0 -0 -0 -0 -0 -0 -0
-0 -0 -0 -0 -0 -0 -0 -0 -0 -0 -0 -0 -0 -0 -0 -0 -0 -0 -0 -0 -0 -0
-0 -0 -0 -0 -0 -0 -0 -0 -0 -0 -0 -0 -0 -0 -0 -0 -0 -0 -0 -0 -0 -0
-0 -0 -0 -0 -0 -0 -0 -0 -0 -0 -0 -0 -0 -0 -0 -1 -0 -0 -0 -0 -0 -0
Wind_Speed
27 26 27 28 28 28 30 31 33 35 36 38 37 36 36 38 39 38 38 39 40 42
28 28 29 29 29 30 31 32 34 35 37 38 38 38 36 36 37 38 38 39 41 42
29 30 30 31 32 33 33 34 35 36 37 38 38 38 39 39 38 38 39 38 39 40
31 32 33 33 34 35 36 36 37 38 38 38 40 39 38 40 39 42 43 40 40 42
32 33 34 34 35 36 38 38 40 40 40 41 40 41 42 43 44 42 45 47 46 45
33 33 34 35 35 36 36 37 37 38 39 40 41 42 43 42 45 46 46 48 48 51
32 33 34 34 34 35 36 36 37 37 37 38 39 40 40 43 46 48 49 49 48 50
31 32 32 33 33 34 34 34 35 36 36 38 38 37 42 44 46 49 51 50 50 49
30 31 31 32 33 34 34 35 36 37 38 40 39 42 44 45 48 48 49 51 52 52
30 30 31 31 32 34 35 36 37 38 39 41 42 45 47 48 49 49 50 52 53 55
30 31 31 32 34 35 36 38 39 40 42 44 44 47 50 52 50 51 52 53 55 56
31 31 32 34 36 37 38 39 41 42 44 46 47 49 52 54 54 55 57 57 58 59
31 33 34 36 38 39 39 41 42 45 45 47 49 51 53 55 55 60 62 61 61 61
32 34 35 37 38 41 42 43 45 47 47 47 49 51 54 55 58 60 64 65 67 65
Wind_Direction
339 336 334 331 329 326 322 318 316 312 311 307 302 300 298 295 294 293 290 288 287 288
334 332 330 329 328 327 325 322 320 318 314 311 309 309 302 301 298 296 294 292 290 288
329 328 327 325 323 322 321 321 320 320 318 316 315 313 309 308 304 300 297 296 294 293
324 323 322 321 321 319 318 318 318 319 318 317 315 315 316 312 307 305 302 299 298 296
325 324 324 323 322 321 317 316 314 314 315 315 315 312 312 310 309 309 302 300 301 297
325 325 324 324 324 324 323 322 321 320 319 318 317 310 313 311 307 307 305 302 303 298
325 326 326 326 326 326 326 326 326 326 325 324 322 322 320 318 313 308 306 306 307 304
329 329 329 328 328 328 328 329 329 329 330 330 330 329 324 321 317 312 308 309 307 307
329 329 329 329 328 328 328 328 328 328 328 329 329 327 325 323 319 317 314 312 310 309
328 328 329 329 328 327 327 327 327 328 328 328 328 326 323 322 320 318 316 314 312 310
327 325 327 327 327 326 326 325 325 325 326 325 325 324 322 320 319 317 316 315 313 311
323 323 324 324 323 324 324 324 325 325 324 324 324 324 323 321 319 317 315 314 313 311
322 321 321 322 321 322 322 322 323 322 324 324 323 324 324 323 321 317 315 314 313 313
322 321 321 321 321 321 321 321 322 322 323 324 325 324 324 324 322 320 317 316 314 314